.
WxDataArchive / Data Records for 2012-12-25
2012-12-24 December 2012 2012-12-26

Data Records for Tuesday, 25 December 2012

Time	Temp	Chill	HIndex	Humid	Dewpt	 Wind 	HiWind	WindDir	Rain 	Barom 
-----	----	-----	------	-----	-----	------	------	-------	-----	----- 
00:00	29.3	29.3	29.3	89	26.5	0	2	292	0.00	30.032 
00:05	29.3	29.3	29.3	89	26.5	0	2	292	0.00	30.032 
00:10	29.3	29.3	29.3	88	26.2	0	2	292	0.00	30.032 
00:15	29.3	29.3	29.3	88	26.2	0	2	292	0.00	30.037 
00:20	29.3	29.3	29.3	88	26.2	1	4	292	0.00	30.037 
00:25	29.3	29.3	29.3	88	26.2	1	3	292	0.00	30.037 
00:30	29.3	29.3	29.3	88	26.2	0	2	292	0.00	30.040 
00:35	29.3	29.3	29.3	88	26.2	0	2	292	0.00	30.040 
00:40	29.3	29.3	29.3	88	26.2	0	2	292	0.00	30.040 
00:45	29.1	29.1	29.1	88	26.0	1	3	292	0.00	30.041 
00:50	29.1	29.1	29.1	88	26.0	1	3	0	0.00	30.041 
00:55	29.0	29.0	29.0	88	25.9	1	3	0	0.00	30.041 
01:00	29.0	29.0	29.0	88	25.9	0	3	0	0.00	30.038 
01:05	29.0	29.0	29.0	88	25.9	0	3	0	0.00	30.038 
01:10	29.0	29.0	29.0	88	25.9	0	3	0	0.00	30.038 
01:15	29.0	29.0	29.0	88	25.9	1	2	0	0.00	30.042 
01:20	28.8	28.8	28.8	87	25.4	1	3	292	0.00	30.042 
01:25	28.8	28.8	28.8	87	25.4	0	2	292	0.00	30.042 
01:30	28.8	28.8	28.8	87	25.4	1	2	292	0.00	30.045 
01:35	28.8	28.8	28.8	87	25.4	0	3	292	0.00	30.045 
01:40	28.8	28.8	28.8	87	25.4	0	2	292	0.00	30.045 
01:45	28.8	28.8	28.8	87	25.4	0	2	292	0.00	30.052 
01:50	28.8	28.8	28.8	87	25.4	0	3	292	0.00	30.052 
01:55	28.8	28.8	28.8	87	25.4	1	2	292	0.00	30.052 
02:00	28.7	28.7	28.7	87	25.3	1	2	292	0.00	30.055 
02:05	28.7	28.7	28.7	87	25.3	1	3	292	0.00	30.055 
02:10	28.7	28.7	28.7	87	25.3	0	1	292	0.00	30.055 
02:15	28.7	28.7	28.7	87	25.3	0	2	292	0.00	30.058 
02:20	28.7	28.7	28.7	86	25.1	0	2	292	0.00	30.058 
02:25	28.7	28.7	28.7	86	25.1	0	2	292	0.00	30.058 
02:30	28.7	28.7	28.7	86	25.1	0	3	292	0.00	30.059 
02:35	28.7	28.7	28.7	86	25.1	0	2	292	0.00	30.059 
02:40	28.7	28.7	28.7	86	25.1	0	1	292	0.00	30.059 
02:45	28.7	28.7	28.7	86	25.1	0	3	292	0.00	30.074 
02:50	28.7	28.7	28.7	86	25.1	1	3	315	0.00	30.074 
02:55	28.7	28.7	28.7	86	25.1	0	2	315	0.00	30.074 
03:00	28.7	28.7	28.7	86	25.1	1	2	315	0.00	30.085 
03:05	28.7	28.7	28.7	86	25.1	1	3	315	0.00	30.085 
03:10	28.7	28.7	28.7	86	25.1	0	2	338	0.00	30.085 
03:15	28.7	28.7	28.7	86	25.1	0	2	338	0.00	30.093 
03:20	28.5	28.5	28.5	85	24.6	1	2	338	0.00	30.093 
03:25	28.5	28.5	28.5	85	24.6	0	3	338	0.00	30.093 
03:30	28.5	28.5	28.5	85	24.6	0	1	338	0.00	30.103 
03:35	28.5	28.5	28.5	85	24.6	0	2	338	0.00	30.103 
03:40	28.5	28.5	28.5	85	24.6	0	2	338	0.00	30.103 
03:45	28.5	28.5	28.5	85	24.6	0	1	338	0.00	30.106 
03:50	28.5	28.5	28.5	85	24.6	1	3	338	0.00	30.106 
03:55	28.5	28.5	28.5	85	24.6	0	2	338	0.00	30.106 
04:00	28.5	28.5	28.5	85	24.6	0	2	338	0.00	30.121 
04:05	28.5	28.5	28.5	85	24.6	0	0	---	0.00	30.121 
04:10	28.5	28.5	28.5	85	24.6	0	1	338	0.00	30.121 
04:15	28.5	28.5	28.5	85	24.6	0	2	338	0.00	30.129 
04:20	28.5	28.5	28.5	85	24.6	0	2	338	0.00	30.129 
04:25	28.5	28.5	28.5	85	24.6	0	2	338	0.00	30.129 
04:30	28.4	28.4	28.4	85	24.5	0	1	338	0.00	30.135 
04:35	28.4	28.4	28.4	85	24.5	0	2	338	0.00	30.135 
04:40	28.4	28.4	28.4	84	24.2	0	1	338	0.00	30.135 
04:45	28.4	28.4	28.4	84	24.2	1	3	338	0.00	30.139 
04:50	28.4	28.4	28.4	84	24.2	0	2	338	0.00	30.139 
04:55	28.2	28.2	28.2	84	24.0	0	3	338	0.00	30.139 
05:00	28.2	28.2	28.2	84	24.0	0	2	338	0.00	30.149 
05:05	28.2	28.2	28.2	84	24.0	0	1	338	0.00	30.149 
05:10	28.2	28.2	28.2	84	24.0	0	2	338	0.00	30.149 
05:15	28.2	28.2	28.2	84	24.0	0	2	338	0.00	30.148 
05:20	28.2	28.2	28.2	84	24.0	0	4	338	0.00	30.148 
05:25	28.2	28.2	28.2	84	24.0	0	2	338	0.00	30.148 
05:30	28.2	28.2	28.2	84	24.0	0	2	338	0.00	30.156 
05:35	28.2	28.2	28.2	84	24.0	0	2	338	0.00	30.156 
05:40	28.2	28.2	28.2	84	24.0	0	2	338	0.00	30.156 
05:45	28.2	28.2	28.2	84	24.0	0	2	338	0.00	30.154 
05:50	28.1	28.1	28.1	84	23.9	0	2	338	0.00	30.154 
05:55	28.1	28.1	28.1	84	23.9	0	3	338	0.00	30.154 
06:00	28.1	28.1	28.1	84	23.9	0	3	338	0.00	30.156 
06:05	28.1	28.1	28.1	84	23.9	0	3	338	0.00	30.156 
06:10	28.1	28.1	28.1	84	23.9	1	3	292	0.00	30.156 
06:15	28.1	28.1	28.1	84	23.9	0	3	292	0.00	30.167 
06:20	27.9	27.9	27.9	84	23.7	0	2	315	0.00	30.167 
06:25	27.9	27.9	27.9	84	23.7	1	2	315	0.00	30.167 
06:30	27.9	27.9	27.9	84	23.7	1	4	315	0.00	30.171 
06:35	27.8	27.8	27.8	84	23.6	0	4	315	0.00	30.171 
06:40	27.8	27.8	27.8	84	23.6	0	1	315	0.00	30.171 
06:45	27.8	27.8	27.8	84	23.6	0	2	315	0.00	30.183 
06:50	27.8	27.8	27.8	84	23.6	0	2	315	0.00	30.183 
06:55	27.8	27.8	27.8	84	23.6	0	2	315	0.00	30.183 
07:00	27.8	27.8	27.8	84	23.6	0	3	315	0.00	30.186 
07:05	27.8	27.8	27.8	84	23.6	0	2	315	0.00	30.186 
07:10	27.8	27.8	27.8	84	23.6	0	2	315	0.00	30.186 
07:15	27.8	27.8	27.8	84	23.6	0	3	315	0.00	30.199 
07:20	27.8	27.8	27.8	84	23.6	0	2	315	0.00	30.199 
07:25	27.8	27.8	27.8	84	23.6	0	1	315	0.00	30.199 
07:30	27.8	27.8	27.8	84	23.6	0	1	315	0.00	30.202 
07:35	27.8	27.8	27.8	84	23.6	0	1	315	0.00	30.202 
07:40	27.8	27.8	27.8	84	23.6	0	2	315	0.00	30.202 
07:45	27.8	27.8	27.8	84	23.6	0	1	315	0.00	30.203 
07:50	27.8	27.8	27.8	84	23.6	0	1	315	0.00	30.203 
07:55	27.6	27.6	27.6	84	23.4	0	0	---	0.00	30.203 
08:00	27.6	27.6	27.6	85	23.7	0	1	315	0.00	30.213 
08:05	27.6	27.6	27.6	85	23.7	0	1	315	0.00	30.213 
08:10	27.6	27.6	27.6	85	23.7	0	2	315	0.00	30.213 
08:15	27.6	27.6	27.6	85	23.7	0	1	315	0.00	30.218 
08:20	27.6	27.6	27.6	84	23.4	0	3	315	0.00	30.218 
08:25	27.5	27.5	27.5	84	23.3	0	2	315	0.00	30.218 
08:30	27.5	27.5	27.5	84	23.3	0	1	315	0.00	30.217 
08:35	27.5	27.5	27.5	84	23.3	0	1	315	0.00	30.217 
08:40	27.5	27.5	27.5	84	23.3	0	0	---	0.00	30.217 
08:45	27.5	27.5	27.5	84	23.3	0	3	315	0.00	30.218 
08:50	27.5	27.5	27.5	85	23.6	0	1	315	0.00	30.218 
08:55	27.5	27.5	27.5	85	23.6	0	0	---	0.00	30.218 
09:00	27.5	27.5	27.5	85	23.6	0	1	315	0.00	30.218 
09:05	27.5	27.5	27.5	84	23.3	0	4	135	0.00	30.218 
09:10	27.5	27.5	27.5	84	23.3	0	3	135	0.00	30.218 
09:15	27.5	27.5	27.5	84	23.3	0	2	45	0.00	30.221 
09:20	27.5	27.5	27.5	84	23.3	0	2	45	0.00	30.221 
09:25	27.5	27.5	27.5	84	23.3	0	2	45	0.00	30.221 
09:30	27.6	27.6	27.6	84	23.4	0	1	45	0.00	30.222 
09:35	27.6	27.6	27.6	84	23.4	0	2	45	0.00	30.222 
09:40	27.8	27.8	27.8	84	23.6	0	3	45	0.00	30.222 
09:45	27.8	27.8	27.8	84	23.6	0	2	45	0.00	30.221 
09:50	27.9	27.9	27.9	84	23.7	0	2	45	0.00	30.221 
09:55	28.1	28.1	28.1	84	23.9	1	4	90	0.00	30.221 
10:00	28.2	28.2	28.2	83	23.7	0	2	90	0.00	30.224 
10:05	28.2	28.2	28.2	83	23.7	0	3	338	0.00	30.224 
10:10	28.4	28.4	28.4	83	23.9	0	2	338	0.00	30.224 
10:15	28.5	28.5	28.5	82	23.7	1	5	338	0.00	30.226 
10:20	28.7	28.7	28.7	82	23.9	1	3	90	0.00	30.226 
10:25	28.8	28.8	28.8	82	24.0	1	3	90	0.00	30.226 
10:30	29.0	29.0	29.0	82	24.2	1	3	68	0.00	30.239 
10:35	29.1	29.1	29.1	82	24.3	0	1	68	0.00	30.239 
10:40	29.4	29.4	29.4	81	24.3	0	3	68	0.00	30.239 
10:45	29.5	29.5	29.5	81	24.4	1	3	68	0.00	30.261 
10:50	29.7	29.7	29.7	80	24.3	0	2	68	0.00	30.261 
10:55	30.0	30.0	30.0	80	24.6	0	2	68	0.00	30.261 
11:00	30.1	30.1	30.1	80	24.7	0	2	68	0.00	30.264 
11:05	30.4	30.4	30.4	79	24.7	1	4	68	0.00	30.264 
11:10	30.6	30.6	30.6	79	24.9	0	4	68	0.00	30.264 
11:15	30.7	30.7	30.7	78	24.7	2	6	90	0.00	30.281 
11:20	30.9	30.9	30.9	77	24.6	1	4	90	0.00	30.281 
11:25	31.0	31.0	31.0	77	24.7	2	6	90	0.00	30.281 
11:30	31.2	31.2	31.2	76	24.5	2	7	112	0.00	30.263 
11:35	31.5	31.5	31.5	77	25.1	1	4	90	0.00	30.263 
11:40	31.5	31.5	31.5	76	24.8	2	6	90	0.00	30.263 
11:45	31.8	31.8	31.8	76	25.1	1	6	90	0.00	30.261 
11:50	31.8	31.8	31.8	75	24.8	3	7	90	0.00	30.261 
11:55	31.9	31.9	31.9	75	24.9	2	5	90	0.00	30.261 
12:00	32.1	32.1	32.1	75	25.1	2	9	90	0.00	30.260 
12:05	32.1	32.1	32.1	73	24.4	2	7	45	0.00	30.260 
12:10	32.4	32.4	32.4	74	25.1	3	8	90	0.00	30.260 
12:15	32.7	32.7	32.7	74	25.3	1	7	90	0.00	30.248 
12:20	33.1	33.1	33.1	74	25.7	2	7	90	0.00	30.248 
12:25	33.1	29.3	33.1	72	25.1	4	10	90	0.00	30.248 
12:30	33.1	33.1	33.1	72	25.1	2	7	90	0.00	30.246 
12:35	33.1	33.1	33.1	72	25.1	2	7	68	0.00	30.246 
12:40	32.9	32.9	32.9	72	24.9	2	7	90	0.00	30.246 
12:45	32.9	32.9	32.9	73	25.2	2	6	90	0.00	30.246 
12:50	32.9	29.1	32.9	72	24.9	4	9	112	0.00	30.246 
12:55	33.1	28.4	33.1	72	25.1	5	9	90	0.00	30.246 
13:00	33.2	33.2	33.2	71	24.8	3	10	90	0.00	30.240 
13:05	33.4	29.7	33.4	71	25.0	4	10	90	0.00	30.240 
13:10	33.7	33.7	33.7	71	25.3	3	10	90	0.00	30.240 
13:15	34.0	34.0	34.0	72	25.9	3	11	90	0.00	30.238 
13:20	34.0	29.4	34.0	70	25.3	5	12	90	0.00	30.238 
13:25	34.1	34.1	34.1	70	25.4	2	7	90	0.00	30.238 
13:30	33.8	30.2	33.8	69	24.7	4	10	90	0.00	30.242 
13:35	33.5	33.5	33.5	69	24.4	3	11	90	0.00	30.242 
13:40	33.7	30.0	33.7	70	25.0	4	9	112	0.00	30.242 
13:45	33.8	33.8	33.8	71	25.4	3	10	90	0.00	30.241 
13:50	33.8	33.8	33.8	70	25.1	1	5	90	0.00	30.241 
13:55	33.7	33.7	33.7	70	25.0	2	6	90	0.00	30.241 
14:00	33.7	33.7	33.7	70	25.0	3	6	112	0.00	30.234 
14:05	33.5	33.5	33.5	70	24.8	1	4	45	0.00	30.234 
14:10	33.5	33.5	33.5	70	24.8	2	6	112	0.01	30.234 
14:15	33.5	33.5	33.5	70	24.8	3	8	112	0.00	30.231 
14:20	33.7	33.7	33.7	70	25.0	2	7	90	0.00	30.231 
14:25	33.7	29.1	33.7	70	25.0	5	13	90	0.00	30.231 
14:30	33.7	33.7	33.7	70	25.0	3	10	90	0.00	30.231 
14:35	33.7	33.7	33.7	71	25.3	3	7	90	0.00	30.231 
14:40	33.4	29.7	33.4	71	25.0	4	11	90	0.00	30.231 
14:45	33.2	33.2	33.2	71	24.8	3	10	90	0.00	30.233 
14:50	33.1	28.4	33.1	71	24.7	5	9	90	0.00	30.233 
14:55	33.1	33.1	33.1	72	25.1	3	7	90	0.00	30.233 
15:00	33.1	28.4	33.1	71	24.7	5	10	90	0.00	30.233 
15:05	33.1	33.1	33.1	71	24.7	3	7	90	0.00	30.233 
15:10	33.1	33.1	33.1	72	25.1	1	7	90	0.00	30.233 
15:15	33.1	28.4	33.1	72	25.1	5	10	90	0.00	30.236 
15:20	32.9	29.1	32.9	72	24.9	4	10	90	0.00	30.236 
15:25	32.9	32.9	32.9	72	24.9	3	10	90	0.00	30.236 
15:30	32.9	32.9	32.9	73	25.2	3	10	112	0.00	30.244 
15:35	32.9	32.9	32.9	73	25.2	3	6	90	0.00	30.244 
15:40	32.9	32.9	32.9	73	25.2	2	5	90	0.00	30.244 
15:45	33.1	33.1	33.1	73	25.4	3	6	112	0.00	30.253 
15:50	33.1	33.1	33.1	72	25.1	2	6	112	0.00	30.253 
15:55	33.1	33.1	33.1	71	24.7	3	8	90	0.00	30.253 
16:00	33.1	33.1	33.1	71	24.7	3	6	90	0.00	30.245 
16:05	33.1	33.1	33.1	71	24.7	2	4	90	0.00	30.245 
16:10	33.1	33.1	33.1	72	25.1	2	5	90	0.00	30.245 
16:15	33.1	33.1	33.1	72	25.1	2	5	90	0.00	30.245 
16:20	33.1	33.1	33.1	73	25.4	1	6	90	0.00	30.245 
16:25	33.1	33.1	33.1	73	25.4	2	9	90	0.00	30.245 
16:30	32.9	32.9	32.9	73	25.2	2	7	90	0.00	30.234 
16:35	32.9	32.9	32.9	74	25.5	1	2	90	0.00	30.234 
16:40	32.9	32.9	32.9	74	25.5	2	5	90	0.00	30.234 
16:45	32.9	32.9	32.9	74	25.5	2	6	90	0.00	30.239 
16:50	32.8	32.8	32.8	74	25.4	1	5	90	0.00	30.239 
16:55	32.8	32.8	32.8	75	25.8	1	3	90	0.00	30.239 
17:00	32.8	32.8	32.8	75	25.8	1	5	90	0.00	30.239 
17:05	32.7	32.7	32.7	75	25.7	1	4	90	0.00	30.239 
17:10	32.7	32.7	32.7	74	25.3	1	5	90	0.00	30.239 
17:15	32.5	32.5	32.5	74	25.2	2	10	90	0.00	30.255 
17:20	32.4	32.4	32.4	75	25.4	1	3	90	0.00	30.255 
17:25	32.2	32.2	32.2	75	25.2	1	4	45	0.00	30.255 
17:30	32.1	32.1	32.1	75	25.1	1	5	112	0.00	30.252 
17:35	31.9	31.9	31.9	75	24.9	1	4	112	0.00	30.252 
17:40	31.8	31.8	31.8	75	24.8	2	6	112	0.00	30.252 
17:45	31.8	31.8	31.8	76	25.1	1	5	112	0.00	30.251 
17:50	31.6	31.6	31.6	76	24.9	1	4	68	0.00	30.251 
17:55	31.6	31.6	31.6	77	25.2	1	4	68	0.00	30.251 
18:00	31.5	31.5	31.5	77	25.1	1	5	68	0.00	30.257 
18:05	31.5	31.5	31.5	77	25.1	1	5	90	0.00	30.257 
18:10	31.3	31.3	31.3	77	24.9	3	8	112	0.00	30.257 
18:15	31.3	31.3	31.3	77	24.9	2	7	90	0.00	30.265 
18:20	31.2	31.2	31.2	77	24.8	2	8	90	0.00	30.265 
18:25	31.2	31.2	31.2	77	24.8	2	9	90	0.00	30.265 
18:30	31.0	31.0	31.0	77	24.7	1	4	90	0.00	30.261 
18:35	30.9	30.9	30.9	77	24.6	1	5	90	0.00	30.261 
18:40	30.7	30.7	30.7	78	24.7	1	3	90	0.00	30.261 
18:45	30.6	30.6	30.6	78	24.6	1	6	90	0.00	30.265 
18:50	30.6	30.6	30.6	79	24.9	1	3	112	0.00	30.265 
18:55	30.4	30.4	30.4	80	25.0	1	4	112	0.00	30.265 
19:00	30.3	30.3	30.3	80	24.9	1	3	112	0.00	30.267 
19:05	30.3	30.3	30.3	81	25.2	1	4	112	0.00	30.267 
19:10	30.1	30.1	30.1	81	25.0	1	4	112	0.00	30.267 
19:15	30.1	30.1	30.1	81	25.0	0	2	112	0.00	30.266 
19:20	30.0	30.0	30.0	81	24.9	0	2	112	0.00	30.266 
19:25	29.8	29.8	29.8	82	25.0	0	2	112	0.00	30.266 
19:30	29.8	29.8	29.8	82	25.0	1	3	112	0.00	30.266 
19:35	29.8	29.8	29.8	82	25.0	1	6	90	0.00	30.266 
19:40	29.8	29.8	29.8	82	25.0	0	1	90	0.00	30.266 
19:45	29.8	29.8	29.8	82	25.0	0	2	90	0.00	30.264 
19:50	29.8	29.8	29.8	83	25.3	0	2	90	0.00	30.264 
19:55	29.8	29.8	29.8	83	25.3	0	4	90	0.00	30.264 
20:00	30.0	30.0	30.0	83	25.5	1	6	90	0.00	30.262 
20:05	30.0	30.0	30.0	82	25.2	1	4	68	0.00	30.262 
20:10	30.0	30.0	30.0	82	25.2	1	4	68	0.00	30.262 
20:15	30.1	30.1	30.1	81	25.0	1	4	68	0.00	30.263 
20:20	30.1	30.1	30.1	80	24.7	0	3	112	0.00	30.263 
20:25	30.1	30.1	30.1	80	24.7	1	11	68	0.00	30.263 
20:30	30.1	30.1	30.1	79	24.4	1	4	68	0.00	30.261 
20:35	30.3	30.3	30.3	79	24.6	2	5	90	0.00	30.261 
20:40	30.3	30.3	30.3	78	24.3	1	5	112	0.00	30.261 
20:45	30.3	30.3	30.3	78	24.3	1	3	90	0.00	30.252 
20:50	30.1	30.1	30.1	78	24.1	1	4	68	0.00	30.252 
20:55	30.1	30.1	30.1	77	23.8	1	3	68	0.00	30.252 
21:00	30.0	30.0	30.0	77	23.7	2	6	68	0.00	30.249 
21:05	30.0	30.0	30.0	77	23.7	1	4	22	0.00	30.249 
21:10	30.0	30.0	30.0	77	23.7	2	7	90	0.00	30.249 
21:15	30.0	30.0	30.0	77	23.7	1	6	45	0.00	30.243 
21:20	29.8	29.8	29.8	77	23.5	1	3	90	0.00	30.243 
21:25	29.8	29.8	29.8	77	23.5	1	3	90	0.00	30.243 
21:30	29.8	29.8	29.8	77	23.5	1	3	68	0.00	30.236 
21:35	29.7	29.7	29.7	78	23.7	1	5	112	0.00	30.236 
21:40	29.7	29.7	29.7	78	23.7	1	4	112	0.00	30.236 
21:45	29.5	29.5	29.5	78	23.5	1	4	112	0.00	30.224 
21:50	29.4	29.4	29.4	77	23.1	1	5	45	0.00	30.224 
21:55	29.4	29.4	29.4	77	23.1	1	4	68	0.00	30.224 
22:00	29.3	29.3	29.3	76	22.7	2	6	90	0.00	30.231 
22:05	29.3	29.3	29.3	76	22.7	2	5	112	0.00	30.231 
22:10	29.3	29.3	29.3	76	22.7	2	9	68	0.00	30.231 
22:15	29.3	29.3	29.3	75	22.4	2	6	112	0.00	30.227 
22:20	29.3	29.3	29.3	75	22.4	1	6	90	0.00	30.227 
22:25	29.3	29.3	29.3	74	22.1	2	5	112	0.00	30.227 
22:30	29.3	29.3	29.3	74	22.1	1	5	90	0.00	30.235 
22:35	29.3	29.3	29.3	74	22.1	2	7	90	0.00	30.235 
22:40	29.3	29.3	29.3	73	21.7	3	6	90	0.00	30.235 
22:45	29.4	29.4	29.4	73	21.8	2	6	90	0.00	30.235 
22:50	29.4	29.4	29.4	73	21.8	3	6	90	0.00	30.235 
22:55	29.3	29.3	29.3	73	21.7	2	7	135	0.00	30.235 
23:00	29.4	29.4	29.4	73	21.8	2	7	112	0.00	30.228 
23:05	29.3	29.3	29.3	73	21.7	3	7	112	0.00	30.228 
23:10	29.3	29.3	29.3	73	21.7	2	10	112	0.00	30.228 
23:15	29.3	29.3	29.3	73	21.7	2	8	90	0.00	30.204 
23:20	29.3	29.3	29.3	73	21.7	3	12	90	0.00	30.204 
23:25	29.3	29.3	29.3	73	21.7	2	12	112	0.00	30.204 
23:30	29.4	29.4	29.4	73	21.8	3	9	90	0.00	30.201 
23:35	29.4	29.4	29.4	73	21.8	3	10	90	0.00	30.201 
23:40	29.4	29.4	29.4	73	21.8	2	5	90	0.00	30.201 
23:45	29.4	29.4	29.4	73	21.8	3	12	90	0.00	30.196 
23:50	29.4	29.4	29.4	73	21.8	2	7	90	0.00	30.196 
23:55	29.4	29.4	29.4	73	21.8	2	10	90	0.00	30.196 

CoCoRaHS
IN-AL-39
A2 Web Hosting
Creative Commons License
GoDaddy
search engine by freefind advanced

loaded 2018-11-20 08:54:49 • last modified 2010-11-18 10:43:29
Privacy PolicyDisclaimer
• wx.awcolley.com is powered by PmWiki v.2002016 •
• all content (unless otherwise noted) © 2018 A W Colley